Location: Hastringsfeld
(50.9620°N, 10.4787°E)
Time: 20:07:32
(UTC+00:00)

ATLAS 3B R/B - Pass Details

Date: 28 April 2024
Orbit: 943 x 1251 km, 63.8° (Epoch: 20 May)

Event Time Altitude Azimuth Distance (km) Brightness Sun altitude
Rises 00:19:05 0° 315° (NW) 4,151 6.2 -23.3°
Reaches altitude 10° 00:21:51 10° 317° (NW) 3,206 5.5 -23.2°
Maximum altitude 00:29:42 77° 44° (NE) 1,286 3.1 -22.8°
Drops below altitude 10° 00:37:31 10° 130° (SE) 3,201 5.0 -22.4°
Sets 00:40:16 0° 132° (SE) 4,144 5.6 -22.2°
